Location: *
(43.0167°S, 179.9000°E)
Time: 20:54:38
(UTC+00:00)

Atlas Centaur 2 - Pass Details

Date: 12 August 2024
Orbit: 457 x 1271 km, 30.4° (Epoch: 19 September)

Event Time Altitude Azimuth Distance (km) Brightness Sun altitude
Exits shadow 17:29:15 - 311° (NW) 3,384 4.9 -16.5°
Reaches altitude 10° 17:29:54 10° 314° (NW) 3,211 4.8 -16.4°
Maximum altitude 17:36:48 30° 10° (N) 2,103 4.4 -15.1°
Drops below altitude 10° 17:43:41 10° 67° (ENE) 3,208 6.5 -13.8°
Sets 17:46:53 0° 77° (ENE) 4,107 7.8 -13.3°
